Domov               UVHVVR             MKGP            O straneh              
ZDRAVSTVENO VARSTVO RASTLIN
  MREŽA AGROMET. POSTAJ
 ► PROGNOSTIČNA OBVESTILA
AGROMETEOROLOŠKI PODATKI -
ARSO
OBVLADOVANJE TVEGANJ ZARADI
NEUGODNIH VREMENSKIH RAZMER
  ► NARAVNE NESREČE
  ► SUŠA/MOČA
  ► NAMAKANJE
  ► ŽLED (gozdarstvo)
KARTOGRAFSKI PRIKAZI
SPLETNE POVEZAVE
PROJEKTI IN PUBLIKACIJE

AGROMETEOROLOŠKA MREŽA: VREMENSKE POSTAJE IN FENOLOŠKA OPAZOVANJA

Pregled podatkov za lokacijo Čelje, meteorološka postaja 37797

Pregled senzorjev na lokaciji

ID Ime Zadnja
vrednost
Datum
zadnje
spremembe
Tip
senzorja
1812 Padavine (mm) 0 mm 20.1.2018 11:30 Rain-O-Matic
1813 Temperatura 2 m (°C) 2,69 °C 20.1.2018 11:30 50YA
1814 Relativna vlaga 2 m (% RH) 72,31 % RH 20.1.2018 11:30 50YA
1815 Omočenost lista (U) 3 U 20.1.2018 11:30 A730WET

Pregled podatkov zadnjih 24 ur

Zap.
št.
Datum in čas Čelje
Omočenost
lista
Padavine Relativna
vlaga
2
m
Temperatura
2
m
0 20.1.2018 11:30 3 0 72,31 2,69
1 20.1.2018 11:00 9 0 75,16 1,9
2 20.1.2018 10:30 9 0 80,02 1,05
3 20.1.2018 10:00 8 0 83,37 0,27
4 20.1.2018 09:30 1 0 86,98 -0,42
5 20.1.2018 09:00 1 0 89,16 -0,81
6 20.1.2018 08:30 1 0 90,57 -1,15
7 20.1.2018 08:00 1 0 94,31 -1,86
8 20.1.2018 07:30 1 0 96,51 -2,88
9 20.1.2018 07:00 7 0 91,16 -1,93
10 20.1.2018 06:30 8 0 89,04 -1,2
11 20.1.2018 06:00 8 0 89,69 -1,29
12 20.1.2018 05:30 8 0 88,79 -1,17
13 20.1.2018 05:00 8 0 88,13 -1
14 20.1.2018 04:30 8 0 88,64 -1,03
15 20.1.2018 04:00 8 0 89,38 -0,98
16 20.1.2018 03:30 8 0,2 89,82 -1,05
17 20.1.2018 03:00 8 0 90,06 -0,98
18 20.1.2018 02:30 8 0 89,74 -0,73
19 20.1.2018 02:00 8 0 88,84 -0,51
20 20.1.2018 01:30 8 0 89,3 -0,44
21 20.1.2018 01:00 8 0 90,5 -0,39
22 20.1.2018 00:30 7 0 91,55 -0,44
23 20.1.2018 00:00 7 0 90,09 -0,17
24 19.1.2018 23:30 7 0 89,01 0,32
25 19.1.2018 23:00 7 0 90,28 0,46
26 19.1.2018 22:30 7 0 88,38 1,15
27 19.1.2018 22:00 8 0 89,04 1,29
28 19.1.2018 21:30 9 0 88,42 1,56
29 19.1.2018 21:00 9 0 88,74 1,66
30 19.1.2018 20:30 9 0 84,18 2,32
31 19.1.2018 20:00 10 0 82,27 2,52
32 19.1.2018 19:30 7 0 85,01 2,39
33 19.1.2018 19:00 1 0 84,15 2,64
34 19.1.2018 18:30 1 0 86,84 2,37
35 19.1.2018 18:00 2 0,2 90,45 2,05
36 19.1.2018 17:30 4 2 92,09 2,37
37 19.1.2018 17:00 3 1,4 90,79 3,76
38 19.1.2018 16:30 3 0 97,34 6,15
39 19.1.2018 16:00 3 0 96,56 6,4
40 19.1.2018 15:30 4 0,4 94,87 6,37
41 19.1.2018 15:00 7 0,6 92,19 6,47
42 19.1.2018 14:30 9 0 89,77 6,69
43 19.1.2018 14:00 9 0 91,75 6,79
44 19.1.2018 13:30 10 0 90,89 6,69
45 19.1.2018 13:00 10 0 89,5 6,67
46 19.1.2018 12:30 10 0 89,13 6,52
© 2011 Ministrstvo za kmetijstvo, gozdarstvo in prehrano. Vse pravice pridržane.